Regional Weather Roundup
Issued by NWS Sterling, VA

Home | Current Version | Previous Version | Graphics & Text | Print | Product List | Glossary On
Versions: 1 2 3 4 5 6 7 8 9 10 11 12 13 14 15 16 17 18 19 20 21 22 23 24 25 26 27 28
000
ASUS41 KLWX 200610
RWRLWX

REGIONAL WEATHER ROUNDUP
NATIONAL WEATHER SERVICE BALTIMORE MD/WASHINGTON DC
100 AM EST MON FEB 20 2017

Note: "FAIR" indicates few or no clouds below 12,000 feet
with no significant weather and/or obstructions to visibility.
 TC=TEMPERATURE CELSIUS

 * =Non NWS site. Station does not report precipitation (e.g. rain,
    snow, etc.), thunder, or fog.

DCZ001-MDZ009-015-VAZ040>042-051-053>054-200700-
WASHINGTON METRO

CITY           SKY/WX    TMP DP  RH WIND       PRES   REMARKS
WASHINGTON NAT MOCLDY    52  42  69 W5        30.07R
DULLES         PTCLDY    50  40  68 NW3       30.08R
ANDREWS AFB    CLEAR     52  41  67 W8        30.06R
FT BELVOIR     CLEAR     48  40  73 CALM      30.07R
QUANTICO       CLEAR     47  41  80 NW5       30.09R
COLLEGE PARK*  CLEAR     54  41  62 W3        30.06R
LEESBURG*      CLEAR     52  45  76 MISG      30.08S
MANASSAS*      CLEAR     40  35  83 CALM      30.09R
GAITHERSBURG*  CLEAR     54  39  58 NW14G22   30.10R

$$

MDZ006>007-011-014-200700-
BALTIMORE METRO

CITY           SKY/WX    TMP DP  RH WIND       PRES   REMARKS
BWI AIRPORT    CLEAR     48  42  80 W8        30.04R
MD SCIENCE CTR   N/A     55  39  54 MISG      30.04S
ANNAPOLIS      CLEAR     47  41  80 W3        30.04R
FORT MEADE*    CLEAR     43  37  81 CALM      30.08R

$$

MDZ012-015-019>023-200700-
MARYLAND EASTERN SHORE

CITY           SKY/WX    TMP DP  RH WIND       PRES   REMARKS
OCEAN CITY     PTCLDY    54  40  59 NW7       30.02R
SALISBURY      CLEAR     54  41  61 NW6       30.03R
BAY BRIDGE AP* CLEAR     50  41  71 W9        30.04S
CAMBRIDGE*     CLEAR     50  41  71 W6        30.05R
EASTON*        CLEAR     51  40  65 NW6       30.08R

$$

MDZ017>025-200700-
SOUTHERN MARYLAND

CITY           SKY/WX    TMP DP  RH WIND       PRES   REMARKS
PATUXENT RIVER CLEAR     53  42  66 W9        30.05R
ST INIGOES     CLEAR     53  40  61 NW6       30.05R
LEONARDTOWN*   CLEAR     54  41  62 W6        30.08R

$$

MDZ003>005-200700-
NORTH CENTRAL MARYLAND

CITY           SKY/WX    TMP DP  RH WIND       PRES   REMARKS
FREDERICK*     CLEAR     52  43  71 W8        30.10R
HAGERSTOWN APT PTCLDY    53  41  63 VRB5      30.08R
WESTMINSTER*   CLEAR     54  43  66 NW6       30.06R

$$

MDZ501>502-200700-
WESTERN MARYLAND

CITY           SKY/WX    TMP DP  RH WIND       PRES   REMARKS
OAKLAND*       CLOUDY    41  41 100 W6        30.14R FOG
CUMBERLAND*    CLEAR     54  41  62 W6        30.17R

$$

VAZ025>031-200700-
SHENANDOAH VALLEY

CITY           SKY/WX    TMP DP  RH WIND       PRES   REMARKS
WINCHESTER*    CLEAR     48  39  71 NW7       30.10S
FRONT ROYAL*   CLEAR     52  37  58 SW3       30.10R
LURAY*         CLEAR     45  37  76 SW3       30.11S
NEW MARKET*    CLEAR     37  32  85 CALM      30.12S
STAUNTON*      CLEAR     34  31  89 CALM      30.14S
WAYNESBORO*    CLEAR     47  38  71 W6        30.12S

$$

WVZ021-048>050-054>055-200700-
EASTERN WEST VIRGINIA PANHANDLE

CITY           SKY/WX    TMP DP  RH WIND       PRES   REMARKS
MARTINSBURG    CLEAR     54  42  64 NW12      30.09R
PETERSBURG*    CLEAR     38  37  97 CALM      30.16S FOG

$$

VAZ036>039-050-200700-
CENTRAL FOOTHILLS

CITY           SKY/WX    TMP DP  RH WIND       PRES   REMARKS
CHARLOTTESVILL CLEAR     60  34  37 NW12G21   30.08R
CULPEPER*      CLEAR     42  35  78 CALM      30.10R
ORANGE*        CLEAR     39  34  81 CALM      30.10R
GORDONSVILLE*  CLEAR     40  35  84 CALM      30.08S
WARRENTON*     CLEAR     36  32  84 CALM      30.08R

$$

VAZ055>057-200700-
NORTH AND CENTRAL PIEDMONT

CITY           SKY/WX    TMP DP  RH WIND       PRES   REMARKS
FREDERICKSBRG* CLEAR     44  38  80 W5        30.08R
STAFFORD*      CLEAR     42  37  82 CALM      30.12R

$$

NCZ024-NYZ072-PAZ021-071-VAZ022-071-200700-
OTHER REGIONAL OBSERVATIONS

CITY           SKY/WX    TMP DP  RH WIND       PRES   REMARKS
NEW YORK CITY  CLEAR     52  33  48 NW6       30.02R
PHILADELPHIA   CLEAR     52  33  48 N6        30.02R
PITTSBURGH     CLEAR     42  40  92 W5        30.15R
ROANOKE        CLEAR     48  39  71 N7        30.15S
RICHMOND       CLEAR     54  39  57 N10       30.08R
RALEIGH        CLEAR     51  40  65 CALM      30.10S

$$

ANZ530>537-200700-
MARINE OBSERVATIONS

STATION/POSITION TIME  TEMP    WIND        PRES
                       AIR SEA DIR/SP/G
                 (UTC) (F)     (DEG/KT/KT) (MB)
THOMAS PT LIGHT  0600   56 41  290/ 11/ 11   N/A
BALT KEY BRIDGE  0548   54     250/  5/  5 1017.2R
COVE POINT       0548   56     320/ 12/ 16 1018.2R
LEWISETTA        0548   56 44  320/  8/ 10 1017.6R
SOLOMONS ISLAND  0548   55 43  310/  4/  7   N/A
PINEY POINT      0548          340/ 10/ 10   N/A

$$





USA.gov is the U.S. government's official web portal to all federal, state and local government web resources and services.